Weather History for Bennettsville, SC

Change the Weather History Date:

Tuesday, July 22, 2014

  Actual Average (KFLO) Record (KFLO)
Temperature  
Mean Temperature 70 °F 81 °F  
Max Temperature 87 °F 91 °F 102 °F (1952)
Min Temperature 53 °F 72 °F 62 °F (1965)
Degree Days  
Heating Degree Days 0 0  
Month to date heating degree days 0  
Since 1 June heating degree days 1  
Since 1 July heating degree days 0  
Cooling Degree Days 5 16  
Month to date cooling degree days 352  
Year to date cooling degree days 1056  
Since 1 June cooling degree days 749  
Growing Degree Days 20 (Base 50)    
Moisture  
Dew Point 45 °F    
Average Humidity 50    
Maximum Humidity 88    
Minimum Humidity 23    
Precipitation  
Precipitation 0.05 in 0.18 in 1.82 in (1989)
Month to date precipitation 3.63  
Year to date precipitation 23.61  
Sea Level Pressure  
Sea Level Pressure 30.11 in    
Wind  
Wind Speed 4 mph (NE)    
Max Wind Speed 8 mph    
Max Gust Speed -    
Visibility 7 miles    
Events Fog , Rain    
T = Trace of Precipitation, MM = Missing Value Source: NWS Daily Summary

Daily Weather History Graph

Daily Weather History Graph

Search for Another Location

Airport:

Trip Planner

Search our weather history database for the weather conditions in past years. The results will help you decide how hot, cold, wet, or windy it might be!

Date:

Astronomy

Jul. 22, 2014 Rise Set
Actual Time 6:21 AM EDT 8:28 PM EDT
Civil Twilight 5:53 AM EDT 8:56 PM EDT
Nautical Twilight 5:18 AM EDT 9:31 PM EDT
Astronomical Twilight 4:41 AM EDT 10:08 PM EDT
Moon 2:52 AM EDT (7/22) 5:05 PM EDT (7/22)
Length of Visible Light 15h 03m
Length of Day
14h 06m
Waning Crescent, 16% of the Moon is Illuminated
Jul 22
Waning Crescent
Jul 26
New
Aug 3
First Quarter
Aug 10
Full
Aug 17
Last Quarter

Hourly Weather History & Observations

Time (EDT) Temp. Dew Point Humidity Pressure Visibility Wind Dir Wind Speed Gust Speed Precip Events Conditions
12:15 AM 73.4 °F - N/A% 30.13 in 10.0 mi NE 4.6 mph - N/A   Overcast
12:35 AM 73.4 °F - N/A% 30.13 in 10.0 mi ENE 5.8 mph - N/A   Overcast
12:55 AM 73.4 °F - N/A% 30.13 in 10.0 mi NE 5.8 mph - 0.01 in   Overcast
1:15 AM 73.4 °F - N/A% 30.13 in 5.0 mi NE 4.6 mph - 0.03 in Rain Light Rain
1:35 AM 73.4 °F - N/A% 30.12 in 10.0 mi NE 3.5 mph - 0.04 in   Overcast
1:55 AM 73.4 °F - N/A% 30.11 in 10.0 mi NE 4.6 mph - 0.04 in   Overcast
2:15 AM 73.4 °F - N/A% 30.11 in 10.0 mi NE 4.6 mph - N/A   Overcast
2:35 AM 73.4 °F - N/A% 30.11 in 7.0 mi ENE 4.6 mph - N/A   Overcast
2:55 AM 73.4 °F - N/A% 30.10 in 7.0 mi ENE 4.6 mph - N/A   Overcast
3:15 AM 73.4 °F - N/A% 30.10 in 7.0 mi Calm Calm - N/A   Overcast
3:35 AM 73.4 °F - N/A% 30.10 in 7.0 mi Calm Calm - N/A   Overcast
3:55 AM 73.4 °F - N/A% 30.09 in 5.0 mi North 4.6 mph - N/A Rain Light Rain
4:15 AM 73.4 °F - N/A% 30.09 in 7.0 mi NNE 5.8 mph - N/A   Overcast
4:35 AM 73.4 °F - N/A% 30.08 in 7.0 mi NE 4.6 mph - N/A   Overcast
4:55 AM 73.4 °F - N/A% 30.09 in 4.0 mi NE 6.9 mph - N/A Rain Rain
5:15 AM 73.4 °F - N/A% 30.09 in 3.0 mi NE 5.8 mph - N/A   Overcast
5:35 AM 73.4 °F - N/A% 30.09 in 2.5 mi ENE 3.5 mph - N/A   Overcast
5:55 AM 73.4 °F - N/A% 30.10 in 1.5 mi Calm Calm - N/A   Overcast
6:15 AM 73.4 °F - N/A% 30.10 in 0.8 mi NNE 3.5 mph - N/A   Overcast
6:35 AM 73.4 °F - N/A% 30.11 in 0.5 mi Calm Calm - N/A Fog Fog
6:55 AM 73.4 °F 59.0 °F 61% 30.11 in 0.8 mi ENE 4.6 mph - N/A   Haze
7:15 AM 73.4 °F 68.0 °F 83% 30.12 in 0.8 mi ENE 5.8 mph - N/A   Haze
7:35 AM 66.2 °F 62.6 °F 88% 30.13 in 0.8 mi ENE 4.6 mph - N/A   Overcast
7:55 AM 62.6 °F 59.0 °F 88% 30.14 in 1.0 mi NNE 4.6 mph - N/A   Overcast
8:15 AM 59.0 °F 53.6 °F 82% 30.14 in 1.0 mi NNE 5.8 mph - N/A   Overcast
8:35 AM 53.6 °F 46.4 °F 77% 30.14 in 1.2 mi NNE 4.6 mph - N/A   Haze
8:55 AM 53.6 °F 24.8 °F 33% 30.14 in 1.5 mi NNE 5.8 mph - N/A   Haze
9:15 AM 53.6 °F 28.4 °F 38% 30.14 in 1.5 mi NNE 5.8 mph - N/A   Haze
9:35 AM 53.6 °F 26.6 °F 35% 30.14 in 1.8 mi NNE 4.6 mph - N/A   Haze
9:55 AM 55.4 °F 28.4 °F 36% 30.14 in 4.0 mi NNE 4.6 mph - N/A   Haze
10:15 AM 64.4 °F 32.0 °F 30% 30.15 in 3.0 mi NNE 5.8 mph - N/A   Haze
10:35 AM 69.8 °F 35.6 °F 28% 30.15 in 5.0 mi NE 4.6 mph - N/A   Haze
10:55 AM 73.4 °F 35.6 °F 25% 30.15 in 7.0 mi ENE 5.8 mph - N/A   Overcast
11:15 AM 78.8 °F 37.4 °F 23% 30.16 in 10.0 mi NNE 6.9 mph - N/A   Overcast
11:35 AM 80.6 °F - N/A% 30.15 in 10.0 mi NE 4.6 mph - N/A   Overcast
11:55 AM 80.6 °F - N/A% 30.14 in 10.0 mi ENE 4.6 mph - N/A   Scattered Clouds
12:15 PM 82.4 °F - N/A% 30.14 in 10.0 mi ENE 6.9 mph - N/A   Mostly Cloudy
12:35 PM 82.4 °F - N/A% 30.13 in 10.0 mi ENE 5.8 mph - N/A   Mostly Cloudy
12:55 PM 84.2 °F - N/A% 30.13 in 10.0 mi North 6.9 mph - N/A   Scattered Clouds
1:15 PM 86.0 °F - N/A% 30.12 in 10.0 mi ENE 6.9 mph - N/A   Scattered Clouds
1:35 PM 84.2 °F - N/A% 30.12 in 10.0 mi NE 6.9 mph - N/A   Mostly Cloudy
1:55 PM 84.2 °F - N/A% 30.12 in 10.0 mi NE 4.6 mph - N/A   Overcast
2:15 PM 86.0 °F - N/A% 30.11 in 10.0 mi ENE 8.1 mph - N/A   Overcast
2:35 PM 86.0 °F - N/A% 30.11 in 10.0 mi NE 5.8 mph - N/A   Overcast
2:55 PM 87.8 °F - N/A% 30.10 in 10.0 mi ENE 6.9 mph - N/A   Scattered Clouds
3:15 PM 86.0 °F - N/A% 30.10 in 10.0 mi East 4.6 mph - N/A   Mostly Cloudy
3:35 PM 87.8 °F - N/A% 30.09 in 10.0 mi ENE 4.6 mph - N/A   Mostly Cloudy
4:15 PM 87.8 °F - N/A% 30.08 in 10.0 mi ENE 3.5 mph - N/A   Scattered Clouds
4:35 PM 87.8 °F - N/A% 30.08 in 10.0 mi East 5.8 mph - N/A   Scattered Clouds
4:55 PM 87.8 °F - N/A% 30.08 in 10.0 mi East 5.8 mph - N/A   Scattered Clouds
5:15 PM 86.0 °F - N/A% 30.07 in 10.0 mi East 3.5 mph - N/A   Clear
5:35 PM 86.0 °F - N/A% 30.07 in 10.0 mi East 3.5 mph - N/A   Mostly Cloudy
5:55 PM 87.8 °F - N/A% 30.06 in 10.0 mi Calm Calm - N/A   Scattered Clouds
6:15 PM 86.0 °F - N/A% 30.06 in 10.0 mi Calm Calm - N/A   Clear
6:35 PM 86.0 °F - N/A% 30.06 in 10.0 mi Calm Calm - N/A   Scattered Clouds
6:55 PM 87.8 °F - N/A% 30.06 in 10.0 mi ENE 3.5 mph - N/A   Scattered Clouds
7:15 PM 87.8 °F - N/A% 30.06 in 10.0 mi Calm Calm - N/A   Clear
7:35 PM 86.0 °F - N/A% 30.06 in 10.0 mi Calm Calm - N/A   Clear
7:55 PM 86.0 °F - N/A% 30.06 in 10.0 mi Calm Calm - N/A   Clear
8:15 PM 82.4 °F - N/A% 30.07 in 10.0 mi Calm Calm - N/A   Clear
8:35 PM 82.4 °F - N/A% 30.08 in 10.0 mi Calm Calm - N/A   Clear
8:55 PM 80.6 °F - N/A% 30.08 in 10.0 mi Calm Calm - N/A   Clear
9:15 PM 80.6 °F - N/A% 30.08 in 10.0 mi Calm Calm - N/A   Scattered Clouds
9:35 PM 80.6 °F - N/A% 30.08 in 10.0 mi Calm Calm - N/A   Scattered Clouds
10:15 PM 78.8 °F - N/A% 30.10 in 10.0 mi Calm Calm - N/A   Scattered Clouds
10:35 PM 78.8 °F 57.2 °F 47% 30.10 in 7.0 mi Calm Calm - N/A   Scattered Clouds
10:55 PM 78.8 °F - N/A% 30.10 in 7.0 mi Calm Calm - N/A   Clear
11:15 PM 77.0 °F - N/A% 30.10 in 7.0 mi Calm Calm - N/A   Clear
11:35 PM 78.8 °F 55.4 °F 44% 30.10 in 7.0 mi Calm Calm - N/A   Scattered Clouds
11:55 PM 77.0 °F 50.0 °F 39% 30.10 in 7.0 mi Calm Calm - N/A   Scattered Clouds